Flag for Norway Weather past 2 weeks in Egersund, Norway

Now
65 °F

Mild.


Feels Like: 65 °F
Forecast: 56 / 61 °F
Wind: 2 mph from Southeast

Location: Ualand-Bjuland

Current Time: Aug 31, 2014 at 1:29:38 PM

Latest Report: Aug 31, 2014 at 12:00 PM


Visibility: N/A

Pressure: 29.98 "Hg

Humidity: 66%

Dew point: 53 °F

Location of EgersundLocation

Historic Weather in Egersund — Graph

°F

Egersund temperature yesterday

Maximum temperature yesterday: 60 °F (at 11:00 AM)
Minimum temperature yesterday: 53 °F (at 7:00 AM)
Average temperature yesterday: 56 °F

Past Weeks' High & Low Weather Summary

 TemperatureHumidityPressure
High69 °F (Aug 27, 2:00 PM)98% (Aug 18, 7:00 AM)29.99 "Hg (Aug 18, 7:00 AM)
Low41 °F (Aug 26, 7:00 AM)51% (Aug 28, 3:00 PM)29.21 "Hg (Aug 18, 10:00 AM)
Average54 °F83%29.68 "Hg
* Reported Aug 16 12:00 Noon — Aug 31 12:00 Noon, Egersund, Weather by CustomWeather, © 2014

Note: Actual official high and low records may vary slightly from our data, if they occured in-between our weather recording intervals... More about our weather records

Advertising

Egersund weather history for previous 24 hours

 ConditionsComfort  
Time TempWeatherWind HumidityBarometerVisibility
12:00 PM
Aug 31
65 °FMild.2 mph66%29.98 "HgN/A
11:00 AM64 °FMild.3 mph69%29.96 "HgN/A
10:00 AM59 °FCool.1 mph87%29.94 "HgN/A
9:00 AM55 °FCool.1 mph98%29.93 "HgN/A
8:00 AM52 °FFog.1 mph98%29.93 "Hg25 mi
7:00 AM50 °FCool.1 mph98%29.91 "HgN/A
6:00 AM49 °FCool.1 mph97%29.90 "HgN/A
5:00 AM52 °FCool.1 mph97%29.88 "HgN/A
4:00 AM53 °FCool.No wind97%29.88 "HgN/A
3:00 AM53 °FCool.1 mph97%29.87 "HgN/A
2:00 AM54 °FCool.1 mph97%29.86 "HgN/A
1:00 AM54 °FCool.1 mph97%29.85 "HgN/A
12:00 AM54 °FCool.No wind97%29.84 "HgN/A
11:00 PM
Aug 30
54 °FCool.No wind96%29.83 "HgN/A
10:00 PM55 °FCool.1 mph96%29.82 "HgN/A
9:00 PM54 °FCool.1 mph96%29.81 "HgN/A
8:00 PM56 °FLow clouds.No wind94%29.78 "Hg25 mi
7:00 PM56 °FCool.2 mph94%29.78 "HgN/A
6:00 PM56 °FCool.2 mph94%29.77 "HgN/A
5:00 PM56 °FCool.1 mph89%29.79 "HgN/A
4:00 PM56 °FCool.2 mph91%29.79 "HgN/A
3:00 PM56 °FCool.3 mph91%29.78 "HgN/A
2:00 PM56 °FRain. Low clouds.3 mph89%29.78 "Hg9 mi
1:00 PM57 °FCool.2 mph86%29.77 "HgN/A
Weather by CustomWeather, © 2014

See weather overviewHow to use our weather pages